Weather History for KTOR - January, 2013

Change the Weather History Date:

Tuesday, January 29, 2013

  Actual Average Record
Temperature  
Mean Temperature 22 °F 29 °F  
Max Temperature 34 °F 43 °F 55 °F (2012)
Min Temperature 9 °F 15 °F 3 °F (1999)
Degree Days  
Heating Degree Days 43 36  
Month to date heating degree days 1056 1067  
Since 1 July heating degree days 3538 3823  
Cooling Degree Days 0 0  
Month to date cooling degree days 0 0  
Year to date cooling degree days 0 0  
Moisture  
Dew Point 15 °F    
Average Humidity 69    
Maximum Humidity 100    
Minimum Humidity 38    
Precipitation  
Precipitation 0.01 in 0.01 in 0.02 in (2013)
Month to date precipitation 0.05 0.24  
Year to date precipitation 0.05 0.24  
Sea Level Pressure  
Sea Level Pressure 29.89 in    
Wind  
Wind Speed 11 mph (NW)    
Max Wind Speed 28 mph    
Max Gust Speed 33 mph    
Visibility 8 miles    
Events Fog , Snow    
T = Trace of Precipitation, MM = Missing Value Source: NWS Daily Summary

Daily Weather History Graph

Daily Weather History Graph

Search for Another Location

Airport or City:

Trip Planner

Search our weather history database for the weather conditions in past years. The results will help you decide how hot, cold, wet, or windy it might be!

Date:

Astronomy

Jan. 29, 2013 Rise Set
Actual Time 7:12 AM MST 5:07 PM MST
Civil Twilight 6:42 AM MST 5:37 PM MST
Nautical Twilight 6:08 AM MST 6:11 PM MST
Astronomical Twilight 5:35 AM MST 6:44 PM MST
Moon 8:10 PM MST (1/29) 8:06 AM MST (1/29)
Length of Visible Light 10h 55m
Length of Day
9h 55m
Waning Gibbous, 93% of the Moon is Illuminated
Jan 29
Waning Gibbous
Feb 3
Last Quarter
Feb 10
New
Feb 17
First Quarter
Feb 25
Full

Hourly Weather History & Observations

Time (MST) Temp. Windchill Dew Point Humidity Pressure Visibility Wind Dir Wind Speed Gust Speed Precip Events Conditions
12:53 AM 25.0 °F 19.3 °F 24.1 °F 96% 29.78 in 8.0 mi West 4.6 mph - N/A   Clear
1:53 AM 23.0 °F 18.4 °F 21.9 °F 96% 29.81 in 7.0 mi West 3.5 mph - N/A   Mostly Cloudy
2:53 AM 21.9 °F 12.5 °F 19.9 °F 92% 29.80 in 10.0 mi WNW 8.1 mph - N/A   Partly Cloudy
3:53 AM 19.0 °F 9.0 °F 17.1 °F 92% 29.81 in 8.0 mi NNW 8.1 mph - N/A   Clear
4:53 AM 19.9 °F 14.9 °F 15.1 °F 81% 29.81 in 10.0 mi WSW 3.5 mph - N/A   Clear
5:53 AM 18.0 °F 9.8 °F 12.0 °F 78% 29.81 in 10.0 mi West 5.8 mph - N/A   Clear
6:53 AM 17.1 °F 5.0 °F 9.0 °F 71% 29.81 in 10.0 mi WNW 10.4 mph - N/A   Clear
7:53 AM 15.1 °F 5.2 °F 8.1 °F 74% 29.83 in 10.0 mi WNW 6.9 mph - N/A   Clear
8:53 AM 19.9 °F 6.7 °F 9.0 °F 62% 29.82 in 10.0 mi NW 13.8 mph - N/A   Clear
9:53 AM 21.9 °F 11.0 °F 12.9 °F 68% 29.81 in 10.0 mi WNW 10.4 mph - N/A   Clear
10:53 AM 25.0 °F 18.1 °F 14.0 °F 63% 29.82 in 10.0 mi NW 5.8 mph - N/A   Clear
11:53 AM 28.0 °F 17.0 °F 15.1 °F 58% 29.82 in 10.0 mi NW 13.8 mph - N/A   Clear
12:53 PM 30.0 °F 19.1 °F 14.0 °F 51% 29.81 in 10.0 mi NNW 15.0 mph 21.9 mph N/A   Clear
1:53 PM 30.9 °F 19.8 °F 15.1 °F 52% 29.81 in 10.0 mi NNW 16.1 mph 20.7 mph N/A   Mostly Cloudy
2:53 PM 33.1 °F 24.4 °F 10.9 °F 40% 29.82 in 10.0 mi NNW 11.5 mph 19.6 mph N/A   Partly Cloudy
3:53 PM 28.0 °F 16.1 °F 16.0 °F 61% 29.88 in 10.0 mi North 16.1 mph - N/A   Scattered Clouds
4:53 PM 26.1 °F 18.4 °F 15.1 °F 63% 29.93 in 10.0 mi NNW 6.9 mph - N/A   Clear
5:18 PM 24.8 °F 9.3 °F 21.2 °F 86% 29.83 in 0.8 mi North 24.2 mph 33.4 mph 0.00 in Snow Light Snow
5:26 PM 24.8 °F 11.9 °F 21.2 °F 86% 29.83 in 1.0 mi North 16.1 mph - 0.00 in Snow Light Snow
5:42 PM 24.8 °F 11.9 °F 21.2 °F 86% 29.85 in 0.5 mi NNW 16.1 mph 23.0 mph 0.00 in Fog , Snow Snow
5:53 PM 24.1 °F 13.1 °F 21.9 °F 91% 29.99 in 0.5 mi NW 11.5 mph 24.2 mph 0.01 in Fog , Snow Snow
5:59 PM 24.8 °F 13.4 °F 21.2 °F 86% 29.85 in 1.5 mi NW 12.7 mph - 0.00 in Snow Light Snow
6:05 PM 24.8 °F 14.6 °F 21.2 °F 86% 29.86 in 3.0 mi NW 10.4 mph - 0.00 in Snow Light Snow
6:21 PM 24.8 °F 14.6 °F 21.2 °F 86% 29.86 in 9.0 mi NW 10.4 mph - 0.00 in   Overcast
6:53 PM 24.1 °F 11.0 °F 18.0 °F 77% 30.01 in 10.0 mi NNW 16.1 mph - 0.00 in   Partly Cloudy
7:53 PM 19.0 °F 7.5 °F 14.0 °F 81% 30.06 in 10.0 mi NNW 10.4 mph - N/A   Clear
8:16 PM 19.4 °F 6.6 °F 15.8 °F 86% 29.91 in 10.0 mi NNW 12.7 mph 28.8 mph N/A   Mostly Cloudy
8:39 PM 19.4 °F 2.8 °F 14.0 °F 80% 29.92 in 8.0 mi NNW 21.9 mph 28.8 mph N/A   Scattered Clouds
8:53 PM 18.0 °F 0.9 °F 10.9 °F 74% 30.09 in 9.0 mi NNW 21.9 mph 29.9 mph N/A   Clear
9:53 PM 14.0 °F -0.8 °F 7.0 °F 74% 30.12 in 10.0 mi NW 13.8 mph - N/A   Scattered Clouds
10:02 PM 12.2 °F -0.2 °F 6.8 °F 79% 29.96 in 10.0 mi WNW 9.2 mph - N/A   Mostly Cloudy
10:53 PM 12.0 °F -4.5 °F 5.0 °F 73% 30.11 in 10.0 mi WNW 16.1 mph - N/A   Scattered Clouds
11:53 PM 9.0 °F -4.2 °F 3.0 °F 77% 30.12 in 10.0 mi NW 9.2 mph - N/A   Clear